Time,TemperatureF,DewpointF,PressureIn,WindDirection,WindDirectionDegrees,WindSpeedMPH,WindSpeedGustMPH,Humidity,HourlyPrecipIn,Conditions,Clouds,dailyrainin,SoftwareType,DateUTC
2013-05-11 00:02:00,54.0,32.6,30.11,West,269,0.0,0.0,44,0.00,CLR,SCT,0.00,WeatherDisplay:10.37,2013-05-11 07:02:00,
2013-05-11 00:07:00,53.9,32.5,30.11,West,269,0.0,0.0,44,0.00,CLR,SCT,0.00,WeatherDisplay:10.37,2013-05-11 07:07:00,
2013-05-11 00:12:00,54.0,32.6,30.12,West,269,0.0,0.0,44,0.00,CLR,SCT,0.00,WeatherDisplay:10.37,2013-05-11 07:12:00,
2013-05-11 00:17:00,54.0,32.6,30.11,West,269,0.0,0.0,44,0.00,CLR,SCT,0.00,WeatherDisplay:10.37,2013-05-11 07:17:00,
2013-05-11 00:22:00,53.9,33.0,30.11,West,269,0.0,0.0,45,0.00,CLR,SCT,0.00,WeatherDisplay:10.37,2013-05-11 07:22:00,
2013-05-11 00:27:00,53.5,32.7,30.11,West,269,0.0,0.0,45,0.00,CLR,SCT,0.00,WeatherDisplay:10.37,2013-05-11 07:27:00,
2013-05-11 00:32:00,53.1,32.8,30.11,West,269,0.0,0.0,46,0.00,CLR,SCT,0.00,WeatherDisplay:10.37,2013-05-11 07:32:00,
2013-05-11 00:37:00,52.8,33.1,30.11,West,269,0.0,0.0,47,0.00,CLR,SCT,0.00,WeatherDisplay:10.37,2013-05-11 07:37:00,
2013-05-11 00:42:00,52.9,32.7,30.10,West,269,0.0,0.0,46,0.00,CLR,SCT,0.00,WeatherDisplay:10.37,2013-05-11 07:42:00,
2013-05-11 00:47:00,53.0,32.8,30.11,West,269,0.0,0.0,46,0.00,CLR,SCT,0.00,WeatherDisplay:10.37,2013-05-11 07:47:00,
2013-05-11 00:52:00,53.0,32.8,30.11,West,269,0.0,0.0,46,0.00,CLR,SCT,0.00,WeatherDisplay:10.37,2013-05-11 07:52:00,
2013-05-11 00:57:00,53.2,32.9,30.11,West,269,0.0,0.0,46,0.00,CLR,SCT,0.00,WeatherDisplay:10.37,2013-05-11 07:57:00,
2013-05-11 01:02:00,53.2,32.9,30.11,West,269,0.0,0.0,46,0.00,CLR,SCT,0.00,WeatherDisplay:10.37,2013-05-11 08:02:00,
2013-05-11 01:07:00,53.1,33.4,30.11,West,269,0.0,0.0,47,0.00,CLR,SCT,0.00,WeatherDisplay:10.37,2013-05-11 08:07:00,
2013-05-11 01:12:00,53.1,33.4,30.11,West,269,0.0,0.0,47,0.00,CLR,SCT,0.00,WeatherDisplay:10.37,2013-05-11 08:12:00,
2013-05-11 01:17:00,53.0,33.3,30.11,West,269,0.0,0.0,47,0.00,CLR,SCT,0.00,WeatherDisplay:10.37,2013-05-11 08:17:00,
2013-05-11 01:22:00,53.0,33.3,30.11,West,269,0.0,0.0,47,0.00,CLR,SCT,0.00,WeatherDisplay:10.37,2013-05-11 08:22:00,
2013-05-11 01:27:00,53.0,33.3,30.11,West,269,0.0,0.0,47,0.00,CLR,SCT,0.00,WeatherDisplay:10.37,2013-05-11 08:27:00,
2013-05-11 01:32:00,53.3,33.6,30.11,West,269,0.0,0.0,47,0.00,CLR,SCT,0.00,WeatherDisplay:10.37,2013-05-11 08:32:00,
2013-05-11 01:37:00,53.3,33.6,30.11,West,269,0.0,0.0,47,0.00,CLR,SCT,0.00,WeatherDisplay:10.37,2013-05-11 08:37:00,
2013-05-11 01:42:00,53.3,33.6,30.11,West,269,0.0,0.0,47,0.00,CLR,SCT,0.00,WeatherDisplay:10.37,2013-05-11 08:42:00,
2013-05-11 01:47:00,53.4,33.1,30.11,West,269,0.0,0.0,46,0.00,CLR,SCT,0.00,WeatherDisplay:10.37,2013-05-11 08:47:00,
2013-05-11 01:52:00,53.4,33.1,30.11,West,269,0.0,0.0,46,0.00,CLR,SCT,0.00,WeatherDisplay:10.37,2013-05-11 08:52:00,
2013-05-11 01:57:00,53.2,32.9,30.11,West,269,0.1,0.0,46,0.00,CLR,SCT,0.00,WeatherDisplay:10.37,2013-05-11 08:57:00,
2013-05-11 02:02:00,53.1,32.8,30.11,West,269,0.0,0.0,46,0.00,CLR,SCT,0.00,WeatherDisplay:10.37,2013-05-11 09:02:00,
2013-05-11 02:07:00,52.9,32.7,30.11,West,269,0.0,0.0,46,0.00,CLR,SCT,0.00,WeatherDisplay:10.37,2013-05-11 09:07:00,
2013-05-11 02:12:00,52.7,33.0,30.11,West,269,0.0,0.0,47,0.00,CLR,SCT,0.00,WeatherDisplay:10.37,2013-05-11 09:12:00,
2013-05-11 02:17:00,52.5,32.8,30.11,West,269,0.0,0.0,47,0.00,CLR,SCT,0.00,WeatherDisplay:10.37,2013-05-11 09:17:00,
2013-05-11 02:22:00,52.4,32.7,30.11,West,269,0.0,0.0,47,0.00,CLR,SCT,0.00,WeatherDisplay:10.37,2013-05-11 09:22:00,
2013-05-11 02:27:00,52.3,33.2,30.11,West,269,0.0,0.0,48,0.00,CLR,SCT,0.00,WeatherDisplay:10.37,2013-05-11 09:27:00,
2013-05-11 02:32:00,52.4,33.3,30.11,West,269,0.0,0.0,48,0.00,CLR,SCT,0.00,WeatherDisplay:10.37,2013-05-11 09:32:00,
2013-05-11 02:37:00,52.7,33.0,30.11,West,269,0.0,0.0,47,0.00,CLR,SCT,0.00,WeatherDisplay:10.37,2013-05-11 09:37:00,
2013-05-11 02:42:00,53.2,33.5,30.11,West,269,0.0,0.0,47,0.00,CLR,SCT,0.00,WeatherDisplay:10.37,2013-05-11 09:42:00,
2013-05-11 02:47:00,53.5,33.2,30.11,West,269,0.0,0.0,46,0.00,CLR,SCT,0.00,WeatherDisplay:10.37,2013-05-11 09:47:00,
2013-05-11 02:52:00,53.8,34.0,30.11,West,269,0.0,0.0,47,0.00,CLR,SCT,0.00,WeatherDisplay:10.37,2013-05-11 09:52:00,
2013-05-11 02:57:00,53.7,33.4,30.11,West,269,0.0,0.0,46,0.00,CLR,SCT,0.00,WeatherDisplay:10.37,2013-05-11 09:57:00,
2013-05-11 03:02:00,53.7,33.9,30.11,West,269,0.0,0.0,47,0.00,CLR,SCT,0.00,WeatherDisplay:10.37,2013-05-11 10:02:00,
2013-05-11 03:07:00,53.5,33.7,30.11,West,269,0.0,0.0,47,0.00,CLR,SCT,0.00,WeatherDisplay:10.37,2013-05-11 10:07:00,
2013-05-11 03:12:00,53.3,33.6,30.11,West,269,0.0,0.0,47,0.00,CLR,SCT,0.00,WeatherDisplay:10.37,2013-05-11 10:12:00,
2013-05-11 03:17:00,53.0,33.3,30.11,West,269,0.0,0.0,47,0.00,CLR,SCT,0.00,WeatherDisplay:10.37,2013-05-11 10:17:00,
2013-05-11 03:22:00,52.6,34.0,30.11,West,269,0.0,0.0,49,0.00,CLR,SCT,0.00,WeatherDisplay:10.37,2013-05-11 10:22:00,
2013-05-11 03:27:00,52.5,33.9,30.11,West,269,0.0,0.0,49,0.00,CLR,SCT,0.00,WeatherDisplay:10.37,2013-05-11 10:27:00,
2013-05-11 03:32:00,52.6,34.0,30.11,West,269,0.0,0.0,49,0.00,CLR,SCT,0.00,WeatherDisplay:10.37,2013-05-11 10:32:00,
2013-05-11 03:37:00,52.5,33.9,30.11,West,269,0.0,0.0,49,0.00,CLR,SCT,0.00,WeatherDisplay:10.37,2013-05-11 10:37:00,
2013-05-11 03:42:00,52.8,34.7,30.11,West,269,0.0,0.0,50,0.00,CLR,SCT,0.00,WeatherDisplay:10.37,2013-05-11 10:42:00,
2013-05-11 03:47:00,53.1,34.4,30.11,West,269,0.0,0.0,49,0.00,CLR,SCT,0.00,WeatherDisplay:10.37,2013-05-11 10:47:00,
2013-05-11 03:52:00,53.5,34.8,30.11,West,269,0.0,0.0,49,0.00,CLR,SCT,0.00,WeatherDisplay:10.37,2013-05-11 10:52:00,
2013-05-11 03:57:00,53.7,35.0,30.11,West,269,0.0,0.0,49,0.00,CLR,SCT,0.00,WeatherDisplay:10.37,2013-05-11 10:57:00,
2013-05-11 04:02:00,53.7,35.0,30.11,West,269,0.0,0.0,49,0.00,CLR,SCT,0.00,WeatherDisplay:10.37,2013-05-11 11:02:00,
2013-05-11 04:07:00,53.8,35.1,30.11,West,269,0.0,0.0,49,0.00,CLR,SCT,0.00,WeatherDisplay:10.37,2013-05-11 11:07:00,
2013-05-11 04:12:00,53.9,34.6,30.10,West,269,0.0,0.0,48,0.00,CLR,SCT,0.00,WeatherDisplay:10.37,2013-05-11 11:12:00,
2013-05-11 04:17:00,53.9,34.6,30.10,West,269,0.0,0.0,48,0.00,CLR,SCT,0.00,WeatherDisplay:10.37,2013-05-11 11:17:00,
2013-05-11 04:22:00,54.0,34.7,30.10,West,269,0.0,1.2,48,0.00,CLR,SCT,0.00,WeatherDisplay:10.37,2013-05-11 11:22:00,
2013-05-11 04:27:00,53.9,34.6,30.10,West,269,0.0,0.0,48,0.00,CLR,SCT,0.00,WeatherDisplay:10.37,2013-05-11 11:27:00,
2013-05-11 04:32:00,53.9,34.6,30.10,West,269,0.0,0.0,48,0.00,CLR,SCT,0.00,WeatherDisplay:10.37,2013-05-11 11:32:00,
2013-05-11 04:37:00,54.0,34.7,30.10,West,269,0.0,0.0,48,0.00,CLR,SCT,0.00,WeatherDisplay:10.37,2013-05-11 11:37:00,
2013-05-11 04:42:00,54.1,34.8,30.11,West,269,0.0,0.0,48,0.00,CLR,SCT,0.00,WeatherDisplay:10.37,2013-05-11 11:42:00,
2013-05-11 04:47:00,54.1,34.8,30.11,West,269,0.0,0.0,48,0.00,CLR,SCT,0.00,WeatherDisplay:10.37,2013-05-11 11:47:00,
2013-05-11 04:52:00,53.9,35.2,30.11,West,269,0.0,0.0,49,0.00,CLR,SCT,0.00,WeatherDisplay:10.37,2013-05-11 11:52:00,
2013-05-11 04:57:00,53.8,35.1,30.11,West,269,0.0,0.0,49,0.00,CLR,SCT,0.00,WeatherDisplay:10.37,2013-05-11 11:57:00,
2013-05-11 05:02:00,53.5,34.8,30.11,West,269,0.0,0.0,49,0.00,CLR,SCT,0.00,WeatherDisplay:10.37,2013-05-11 12:02:00,
2013-05-11 05:07:00,53.2,35.0,30.11,West,269,0.0,0.0,50,0.00,CLR,SCT,0.00,WeatherDisplay:10.37,2013-05-11 12:07:00,
2013-05-11 05:12:00,53.1,35.4,30.12,West,269,0.0,0.0,51,0.00,CLR,SCT,0.00,WeatherDisplay:10.37,2013-05-11 12:12:00,
2013-05-11 05:17:00,53.0,35.3,30.12,West,269,0.0,0.0,51,0.00,CLR,SCT,0.00,WeatherDisplay:10.37,2013-05-11 12:17:00,
2013-05-11 05:22:00,52.9,35.2,30.12,West,269,0.0,0.0,51,0.00,CLR,SCT,0.00,WeatherDisplay:10.37,2013-05-11 12:22:00,
2013-05-11 05:27:00,53.1,35.4,30.12,SSW,211,0.0,1.2,51,0.00,CLR,SCT,0.00,WeatherDisplay:10.37,2013-05-11 12:27:00,
2013-05-11 05:32:00,53.6,35.4,30.12,SSW,206,0.2,0.0,50,0.00,CLR,SCT,0.00,WeatherDisplay:10.37,2013-05-11 12:32:00,
2013-05-11 05:37:00,54.0,35.8,30.12,SSW,200,0.0,0.0,50,0.00,CLR,SCT,0.00,WeatherDisplay:10.37,2013-05-11 12:37:00,
2013-05-11 05:42:00,54.4,35.6,30.13,SSW,199,0.0,1.2,49,0.00,CLR,SCT,0.00,WeatherDisplay:10.37,2013-05-11 12:42:00,
2013-05-11 05:47:00,54.7,35.9,30.13,SSW,199,0.1,1.2,49,0.00,CLR,SCT,0.00,WeatherDisplay:10.37,2013-05-11 12:47:00,
2013-05-11 05:52:00,54.9,36.1,30.13,SSW,197,1.0,3.5,49,0.00,CLR,SCT,0.00,WeatherDisplay:10.37,2013-05-11 12:52:00,
2013-05-11 05:57:00,55.2,35.8,30.14,SSW,192,0.0,0.0,48,0.00,CLR,SCT,0.00,WeatherDisplay:10.37,2013-05-11 12:57:00,
2013-05-11 06:02:00,55.5,36.1,30.14,South,190,0.0,1.2,48,0.00,CLR,SCT,0.00,WeatherDisplay:10.37,2013-05-11 13:02:00,
2013-05-11 06:07:00,55.8,36.4,30.14,South,190,0.0,1.2,48,0.00,CLR,SCT,0.00,WeatherDisplay:10.37,2013-05-11 13:07:00,
2013-05-11 06:12:00,56.0,36.0,30.14,South,180,1.8,1.8,47,0.00,CLR,SCT,0.00,WeatherDisplay:10.37,2013-05-11 13:12:00,
2013-05-11 06:17:00,56.3,36.3,30.14,SSW,204,1.6,3.0,47,0.00,CLR,SCT,0.00,WeatherDisplay:10.37,2013-05-11 13:17:00,
2013-05-11 06:22:00,56.7,36.7,30.14,SSW,202,1.7,2.3,47,0.00,CLR,SCT,0.00,WeatherDisplay:10.37,2013-05-11 13:22:00,
2013-05-11 06:27:00,57.0,37.0,30.14,South,189,0.5,3.5,47,0.00,CLR,SCT,0.00,WeatherDisplay:10.37,2013-05-11 13:27:00,
2013-05-11 06:32:00,57.2,37.1,30.14,South,188,1.3,3.5,47,0.00,CLR,SCT,0.00,WeatherDisplay:10.37,2013-05-11 13:32:00,
2013-05-11 06:37:00,57.5,37.4,30.14,South,188,0.7,2.3,47,0.00,CLR,SCT,0.00,WeatherDisplay:10.37,2013-05-11 13:37:00,
2013-05-11 06:42:00,57.8,37.1,30.14,South,188,1.0,1.0,46,0.00,CLR,SCT,0.00,WeatherDisplay:10.37,2013-05-11 13:42:00,
2013-05-11 06:47:00,58.2,37.5,30.14,South,188,0.0,3.5,46,0.00,CLR,SCT,0.00,WeatherDisplay:10.37,2013-05-11 13:47:00,
2013-05-11 06:52:00,58.6,37.3,30.14,South,187,0.8,3.5,45,0.00,CLR,SCT,0.00,WeatherDisplay:10.37,2013-05-11 13:52:00,
2013-05-11 06:57:00,59.0,37.1,30.14,South,186,0.8,1.2,44,0.00,CLR,SCT,0.00,WeatherDisplay:10.37,2013-05-11 13:57:00,
2013-05-11 07:02:00,59.4,37.5,30.14,South,186,1.1,1.2,44,0.00,CLR,SCT,0.00,WeatherDisplay:10.37,2013-05-11 14:02:00,
2013-05-11 07:07:00,59.8,37.2,30.14,South,186,1.2,3.5,43,0.00,CLR,SCT,0.00,WeatherDisplay:10.37,2013-05-11 14:07:00,
2013-05-11 07:12:00,60.3,37.1,30.14,South,180,1.3,3.5,42,0.00,CLR,SCT,0.00,WeatherDisplay:10.37,2013-05-11 14:12:00,
2013-05-11 07:17:00,60.6,37.4,30.14,SSW,208,0.0,1.2,42,0.00,CLR,SCT,0.00,WeatherDisplay:10.37,2013-05-11 14:17:00,
2013-05-11 07:22:00,60.9,37.0,30.14,SSW,202,0.1,3.5,41,0.00,CLR,SCT,0.00,WeatherDisplay:10.37,2013-05-11 14:22:00,
2013-05-11 07:27:00,61.2,36.7,30.14,SSW,202,0.0,1.2,40,0.00,CLR,SCT,0.00,WeatherDisplay:10.37,2013-05-11 14:27:00,
2013-05-11 07:33:00,61.6,37.0,30.15,SSW,202,0.0,0.0,40,0.00,CLR,SCT,0.00,WeatherDisplay:10.37,2013-05-11 14:33:00,
2013-05-11 07:38:00,62.0,37.4,30.15,SSW,202,0.0,1.2,40,0.00,CLR,SCT,0.00,WeatherDisplay:10.37,2013-05-11 14:38:00,
2013-05-11 07:43:00,62.3,37.7,30.15,SSW,202,0.0,0.0,40,0.00,CLR,SCT,0.00,WeatherDisplay:10.37,2013-05-11 14:43:00,
2013-05-11 07:48:00,62.7,38.0,30.15,SSW,201,0.1,1.2,40,0.00,CLR,SCT,0.00,WeatherDisplay:10.37,2013-05-11 14:48:00,
2013-05-11 07:53:00,63.0,37.6,30.15,South,184,0.9,3.5,39,0.00,CLR,SCT,0.00,WeatherDisplay:10.37,2013-05-11 14:53:00,
2013-05-11 07:58:00,63.0,37.6,30.15,SSW,195,1.9,5.8,39,0.00,CLR,SCT,0.00,WeatherDisplay:10.37,2013-05-11 14:58:00,
2013-05-11 08:03:00,63.1,37.7,30.15,South,185,2.5,6.9,39,0.00,CLR,SCT,0.00,WeatherDisplay:10.37,2013-05-11 15:03:00,
2013-05-11 08:08:00,63.3,37.2,30.15,South,179,2.2,3.5,38,0.00,CLR,SCT,0.00,WeatherDisplay:10.37,2013-05-11 15:08:00,
2013-05-11 08:13:00,63.5,38.1,30.16,South,173,0.3,2.3,39,0.00,CLR,SCT,0.00,WeatherDisplay:10.37,2013-05-11 15:13:00,
2013-05-11 08:18:00,63.7,37.6,30.16,South,178,0.2,2.3,38,0.00,CLR,SCT,0.00,WeatherDisplay:10.37,2013-05-11 15:18:00,
2013-05-11 08:23:00,64.0,37.9,30.16,SSE,161,2.7,5.8,38,0.00,CLR,SCT,0.00,WeatherDisplay:10.37,2013-05-11 15:23:00,
2013-05-11 08:28:00,64.2,37.4,30.15,South,182,1.2,4.6,37,0.00,CLR,SCT,0.00,WeatherDisplay:10.37,2013-05-11 15:28:00,
2013-05-11 08:33:00,64.2,36.7,30.15,SW,236,1.0,3.5,36,0.00,CLR,SCT,0.00,WeatherDisplay:10.37,2013-05-11 15:33:00,
2013-05-11 08:38:00,64.6,37.7,30.15,SW,236,0.0,0.0,37,0.00,CLR,SCT,0.00,WeatherDisplay:10.37,2013-05-11 15:38:00,
2013-05-11 08:43:00,65.2,38.3,30.15,SSE,155,0.1,1.2,37,0.00,CLR,SCT,0.00,WeatherDisplay:10.37,2013-05-11 15:43:00,
2013-05-11 08:48:00,66.0,38.3,30.15,SSE,152,0.1,1.2,36,0.00,CLR,SCT,0.00,WeatherDisplay:10.37,2013-05-11 15:48:00,
2013-05-11 08:53:00,66.6,37.3,30.15,SSW,200,0.7,3.5,34,0.00,CLR,SCT,0.00,WeatherDisplay:10.37,2013-05-11 15:53:00,
2013-05-11 08:59:00,67.0,38.4,30.15,SE,138,0.4,1.2,35,0.00,CLR,SCT,0.00,WeatherDisplay:10.37,2013-05-11 15:59:00,
2013-05-11 09:04:00,67.5,37.4,30.15,East,86,0.5,2.3,33,0.00,CLR,SCT,0.00,WeatherDisplay:10.37,2013-05-11 16:04:00,
2013-05-11 09:09:00,67.7,37.5,30.15,East,79,0.1,1.2,33,0.00,CLR,SCT,0.00,WeatherDisplay:10.37,2013-05-11 16:09:00,
2013-05-11 09:14:00,68.3,38.1,30.15,ESE,103,0.0,1.2,33,0.00,CLR,SCT,0.00,WeatherDisplay:10.37,2013-05-11 16:14:00,
2013-05-11 09:19:00,68.9,38.6,30.15,ENE,76,0.0,1.2,33,0.00,CLR,SCT,0.00,WeatherDisplay:10.37,2013-05-11 16:19:00,
2013-05-11 09:24:00,69.5,37.5,30.15,ENE,76,1.1,1.2,31,0.00,CLR,SCT,0.00,WeatherDisplay:10.37,2013-05-11 16:24:00,
2013-05-11 09:29:00,69.5,37.5,30.15,ENE,70,0.0,1.2,31,0.00,CLR,SCT,0.00,WeatherDisplay:10.37,2013-05-11 16:29:00,
2013-05-11 09:34:00,69.4,37.4,30.15,SSE,161,1.1,0.0,31,0.00,CLR,SCT,0.00,WeatherDisplay:10.37,2013-05-11 16:34:00,
2013-05-11 09:39:00,69.4,37.4,30.15,South,186,0.0,3.5,31,0.00,CLR,SCT,0.00,WeatherDisplay:10.37,2013-05-11 16:39:00,
2013-05-11 09:44:00,69.9,37.9,30.15,ENE,60,1.1,4.0,31,0.00,CLR,SCT,0.00,WeatherDisplay:10.37,2013-05-11 16:44:00,
2013-05-11 09:49:00,70.2,38.1,30.15,ENE,57,0.1,6.9,31,0.00,CLR,SCT,0.00,WeatherDisplay:10.37,2013-05-11 16:49:00,
2013-05-11 09:54:00,70.1,37.2,30.14,SW,227,0.7,1.2,30,0.00,CLR,SCT,0.00,WeatherDisplay:10.37,2013-05-11 16:54:00,
2013-05-11 09:59:00,69.7,36.9,30.14,NNE,25,0.1,3.5,30,0.00,CLR,SCT,0.00,WeatherDisplay:10.37,2013-05-11 16:59:00,
2013-05-11 10:04:00,70.0,37.1,30.15,NE,48,0.7,1.0,30,0.00,CLR,SCT,0.00,WeatherDisplay:10.37,2013-05-11 17:04:00,
2013-05-11 10:09:00,70.4,38.3,30.15,SE,125,0.3,3.5,31,0.00,CLR,SCT,0.00,WeatherDisplay:10.37,2013-05-11 17:09:00,
2013-05-11 10:14:00,70.9,37.0,30.14,East,79,0.0,1.2,29,0.00,CLR,SCT,0.00,WeatherDisplay:10.37,2013-05-11 17:14:00,
2013-05-11 10:19:00,71.5,37.6,30.14,SSW,192,1.8,3.5,29,0.00,CLR,SCT,0.00,WeatherDisplay:10.37,2013-05-11 17:19:00,
2013-05-11 10:24:00,71.4,37.5,30.14,ESE,105,2.8,7.0,29,0.00,CLR,SCT,0.00,WeatherDisplay:10.37,2013-05-11 17:24:00,
2013-05-11 10:29:00,71.6,37.6,30.14,ENE,69,1.7,5.8,29,0.00,CLR,SCT,0.00,WeatherDisplay:10.37,2013-05-11 17:29:00,
2013-05-11 10:34:00,72.1,38.1,30.14,South,169,2.7,3.5,29,0.00,CLR,SCT,0.00,WeatherDisplay:10.37,2013-05-11 17:34:00,
2013-05-11 10:39:00,72.6,37.6,30.14,SE,130,1.3,5.8,28,0.00,CLR,SCT,0.00,WeatherDisplay:10.37,2013-05-11 17:39:00,
2013-05-11 10:44:00,72.5,37.5,30.14,South,181,1.1,4.6,28,0.00,CLR,SCT,0.00,WeatherDisplay:10.37,2013-05-11 17:44:00,
2013-05-11 10:49:00,73.0,38.0,30.14,SSE,157,0.7,3.5,28,0.00,CLR,SCT,0.00,WeatherDisplay:10.37,2013-05-11 17:49:00,
2013-05-11 10:54:00,73.1,37.1,30.14,NNE,25,0.8,3.5,27,0.00,CLR,SCT,0.00,WeatherDisplay:10.37,2013-05-11 17:54:00,
2013-05-11 10:59:00,72.2,37.3,30.14,SSE,159,1.0,4.6,28,0.00,CLR,SCT,0.00,WeatherDisplay:10.37,2013-05-11 17:59:00,
2013-05-11 11:04:00,72.2,36.3,30.13,South,184,0.3,4.0,27,0.00,CLR,SCT,0.00,WeatherDisplay:10.37,2013-05-11 18:04:00,
2013-05-11 11:09:00,72.8,36.9,30.14,ENE,65,1.3,3.5,27,0.00,CLR,SCT,0.00,WeatherDisplay:10.37,2013-05-11 18:09:00,
2013-05-11 11:14:00,72.6,37.6,30.14,ENE,60,0.0,3.5,28,0.00,CLR,SCT,0.00,WeatherDisplay:10.37,2013-05-11 18:14:00,
2013-05-11 11:19:00,73.0,37.0,30.13,ENE,63,0.0,1.2,27,0.00,CLR,SCT,0.00,WeatherDisplay:10.37,2013-05-11 18:19:00,
2013-05-11 11:24:00,73.2,38.1,30.13,SSW,213,0.6,4.6,28,0.00,CLR,SCT,0.00,WeatherDisplay:10.37,2013-05-11 18:24:00,
2013-05-11 11:29:00,74.0,38.8,30.13,SE,143,0.1,4.6,28,0.00,CLR,SCT,0.00,WeatherDisplay:10.37,2013-05-11 18:29:00,
2013-05-11 11:34:00,74.7,38.5,30.13,ENE,61,0.4,4.6,27,0.00,CLR,SCT,0.00,WeatherDisplay:10.37,2013-05-11 18:34:00,
2013-05-11 11:39:00,74.9,36.7,30.13,South,170,0.0,3.5,25,0.00,CLR,SCT,0.00,WeatherDisplay:10.37,2013-05-11 18:39:00,
2013-05-11 11:44:00,74.4,36.3,30.13,ENE,57,1.5,2.3,25,0.00,CLR,SCT,0.00,WeatherDisplay:10.37,2013-05-11 18:44:00,
2013-05-11 11:50:00,74.8,37.6,30.13,SSE,155,0.8,4.0,26,0.00,CLR,SCT,0.00,WeatherDisplay:10.37,2013-05-11 18:50:00,
2013-05-11 11:55:00,75.2,36.9,30.13,ENE,59,0.4,1.2,25,0.00,CLR,SCT,0.00,WeatherDisplay:10.37,2013-05-11 18:55:00,
2013-05-11 12:00:00,75.3,37.0,30.13,SE,143,0.1,3.5,25,0.00,CLR,SCT,0.00,WeatherDisplay:10.37,2013-05-11 19:00:00,
2013-05-11 12:05:00,75.3,37.0,30.13,ENE,57,0.0,3.5,25,0.00,CLR,SCT,0.00,WeatherDisplay:10.37,2013-05-11 19:05:00,
2013-05-11 12:10:00,75.2,36.9,30.12,ENE,57,0.6,5.8,25,0.00,CLR,SCT,0.00,WeatherDisplay:10.37,2013-05-11 19:10:00,
2013-05-11 12:15:00,74.9,36.7,30.12,ENE,57,0.0,1.2,25,0.00,CLR,SCT,0.00,WeatherDisplay:10.37,2013-05-11 19:15:00,
2013-05-11 12:20:00,74.2,36.1,30.12,North,351,1.6,3.5,25,0.00,CLR,SCT,0.00,WeatherDisplay:10.37,2013-05-11 19:20:00,
2013-05-11 12:25:00,73.5,36.5,30.12,ENE,57,0.3,4.6,26,0.00,CLR,SCT,0.00,WeatherDisplay:10.37,2013-05-11 19:25:00,
2013-05-11 12:30:00,72.5,46.1,30.13,ENE,61,0.6,1.2,39,0.00,CLR,SCT,0.00,WeatherDisplay:10.37,2013-05-11 19:30:00,
2013-05-11 12:35:00,70.0,44.6,30.13,NNW,347,1.1,3.5,40,0.00,CLR,SCT,0.00,WeatherDisplay:10.37,2013-05-11 19:35:00,
2013-05-11 12:40:00,68.7,44.0,30.13,ENE,59,0.0,1.2,41,0.01,RA,SCT,0.01,WeatherDisplay:10.37,2013-05-11 19:40:00,
2013-05-11 12:45:00,68.4,41.8,30.13,ENE,59,0.0,0.0,38,0.01,RA,SCT,0.01,WeatherDisplay:10.37,2013-05-11 19:45:00,
2013-05-11 12:50:00,68.3,46.7,30.12,ENE,58,0.0,0.0,46,0.01,,SCT,0.01,WeatherDisplay:10.37,2013-05-11 19:50:00,
2013-05-11 12:55:00,67.4,47.0,30.12,WNW,285,0.0,1.2,48,0.02,RA,SCT,0.02,WeatherDisplay:10.37,2013-05-11 19:55:00,
2013-05-11 13:00:00,67.1,42.6,30.12,WNW,285,0.9,2.3,41,0.02,RA,SCT,0.02,WeatherDisplay:10.37,2013-05-11 20:00:00,
2013-05-11 13:05:00,67.4,42.2,30.12,West,273,0.0,3.5,40,0.02,CLR,SCT,0.02,WeatherDisplay:10.37,2013-05-11 20:05:00,
2013-05-11 13:10:00,67.8,43.2,30.12,West,273,0.6,2.3,41,0.02,CLR,SCT,0.02,WeatherDisplay:10.37,2013-05-11 20:10:00,
2013-05-11 13:15:00,69.1,43.1,30.12,WNW,285,0.8,3.5,39,0.02,CLR,SCT,0.02,WeatherDisplay:10.37,2013-05-11 20:15:00,
2013-05-11 13:20:00,70.5,43.7,30.11,WNW,297,0.4,3.5,38,0.02,CLR,SCT,0.02,WeatherDisplay:10.37,2013-05-11 20:20:00,
2013-05-11 13:25:00,71.0,41.2,30.11,West,271,1.2,4.6,34,0.02,CLR,SCT,0.02,WeatherDisplay:10.37,2013-05-11 20:25:00,
2013-05-11 13:30:00,70.9,39.6,30.11,West,281,0.1,1.2,32,0.02,CLR,SCT,0.02,WeatherDisplay:10.37,2013-05-11 20:30:00,
2013-05-11 13:35:00,71.0,40.4,30.11,WNW,300,0.0,0.0,33,0.02,CLR,SCT,0.02,WeatherDisplay:10.37,2013-05-11 20:35:00,
2013-05-11 13:40:00,71.0,38.0,30.11,NNW,340,1.5,4.6,30,0.01,CLR,SCT,0.02,WeatherDisplay:10.37,2013-05-11 20:40:00,
2013-05-11 13:45:00,71.0,38.8,30.11,NNE,22,0.1,1.2,31,0.01,CLR,SCT,0.02,WeatherDisplay:10.37,2013-05-11 20:45:00,
2013-05-11 13:50:00,71.1,38.1,30.11,NNE,22,0.0,0.0,30,0.01,CLR,SCT,0.02,WeatherDisplay:10.37,2013-05-11 20:50:00,
2013-05-11 13:55:00,71.3,38.2,30.11,ENE,63,1.3,5.0,30,0.00,CLR,SCT,0.02,WeatherDisplay:10.37,2013-05-11 20:55:00,
2013-05-11 14:00:00,71.4,40.8,30.11,NE,45,0.1,1.2,33,0.00,CLR,SCT,0.02,WeatherDisplay:10.37,2013-05-11 21:00:00,
2013-05-11 14:05:00,71.4,40.0,30.11,NE,45,0.0,1.2,32,0.00,CLR,SCT,0.02,WeatherDisplay:10.37,2013-05-11 21:05:00,
2013-05-11 14:10:00,71.4,37.5,30.10,NE,45,0.1,1.2,29,0.00,CLR,SCT,0.02,WeatherDisplay:10.37,2013-05-11 21:10:00,
2013-05-11 14:15:00,71.7,39.4,30.10,SW,220,1.5,3.5,31,0.00,CLR,SCT,0.02,WeatherDisplay:10.37,2013-05-11 21:15:00,
2013-05-11 14:20:00,72.4,38.3,30.11,SSW,208,0.5,3.0,29,0.00,CLR,SCT,0.02,WeatherDisplay:10.37,2013-05-11 21:20:00,
2013-05-11 14:25:00,72.5,39.3,30.10,SSW,202,0.2,1.2,30,0.00,CLR,SCT,0.02,WeatherDisplay:10.37,2013-05-11 21:25:00,
2013-05-11 14:30:00,72.3,39.1,30.10,East,96,0.1,1.2,30,0.00,CLR,SCT,0.02,WeatherDisplay:10.37,2013-05-11 21:30:00,
2013-05-11 14:35:00,72.2,38.2,30.10,ENE,57,1.9,3.5,29,0.00,CLR,SCT,0.02,WeatherDisplay:10.37,2013-05-11 21:35:00,
2013-05-11 14:40:00,72.1,38.9,30.09,ENE,69,1.2,5.8,30,0.00,CLR,SCT,0.02,WeatherDisplay:10.37,2013-05-11 21:40:00,
2013-05-11 14:45:00,73.1,36.2,30.09,ENE,64,1.9,3.5,26,0.00,CLR,SCT,0.02,WeatherDisplay:10.37,2013-05-11 21:45:00,
2013-05-11 14:50:00,74.4,37.3,30.09,ENE,57,1.8,4.6,26,0.00,CLR,SCT,0.02,WeatherDisplay:10.37,2013-05-11 21:50:00,
2013-05-11 14:55:00,75.2,36.9,30.08,ENE,72,0.1,1.2,25,0.00,CLR,SCT,0.02,WeatherDisplay:10.37,2013-05-11 21:55:00,
2013-05-11 15:00:00,75.7,36.3,30.08,ENE,60,0.5,2.3,24,0.00,CLR,SCT,0.02,WeatherDisplay:10.37,2013-05-11 22:00:00,
2013-05-11 15:05:00,76.0,36.6,30.08,ENE,65,0.7,3.5,24,0.00,CLR,SCT,0.02,WeatherDisplay:10.37,2013-05-11 22:05:00,
2013-05-11 15:10:00,75.9,36.5,30.08,ENE,63,0.0,1.2,24,0.00,CLR,SCT,0.02,WeatherDisplay:10.37,2013-05-11 22:10:00,
2013-05-11 15:15:00,76.3,34.6,30.08,ENE,71,0.1,1.2,22,0.00,CLR,SCT,0.02,WeatherDisplay:10.37,2013-05-11 22:15:00,
2013-05-11 15:20:00,76.8,32.7,30.08,SE,138,1.5,3.5,20,0.00,CLR,SCT,0.02,WeatherDisplay:10.37,2013-05-11 22:20:00,
2013-05-11 15:25:00,76.9,35.1,30.08,SSE,159,0.3,1.2,22,0.00,CLR,SCT,0.02,WeatherDisplay:10.37,2013-05-11 22:25:00,
2013-05-11 15:30:00,77.5,35.6,30.08,SSE,163,0.5,3.5,22,0.00,CLR,SCT,0.02,WeatherDisplay:10.37,2013-05-11 22:30:00,
2013-05-11 15:35:00,78.0,34.9,30.07,South,190,1.0,2.3,21,0.00,CLR,SCT,0.02,WeatherDisplay:10.37,2013-05-11 22:35:00,
2013-05-11 15:40:00,78.2,36.2,30.07,ENE,73,0.5,2.3,22,0.00,CLR,SCT,0.02,WeatherDisplay:10.37,2013-05-11 22:40:00,
2013-05-11 15:45:00,78.3,36.3,30.07,ENE,67,0.8,2.3,22,0.00,CLR,SCT,0.02,WeatherDisplay:10.37,2013-05-11 22:45:00,
2013-05-11 15:50:00,77.6,35.7,30.07,ENE,61,1.2,4.6,22,0.00,CLR,SCT,0.02,WeatherDisplay:10.37,2013-05-11 22:50:00,
2013-05-11 15:55:00,76.5,34.8,30.07,ENE,68,2.0,9.0,22,0.00,CLR,SCT,0.02,WeatherDisplay:10.37,2013-05-11 22:55:00,
2013-05-11 16:00:00,76.4,34.7,30.08,ENE,62,0.9,3.5,22,0.00,CLR,SCT,0.02,WeatherDisplay:10.37,2013-05-11 23:00:00,
2013-05-11 16:05:00,76.2,34.6,30.07,ENE,66,0.0,1.2,22,0.00,CLR,SCT,0.02,WeatherDisplay:10.37,2013-05-11 23:05:00,
2013-05-11 16:10:00,76.1,34.5,30.08,ENE,66,0.3,2.3,22,0.00,CLR,SCT,0.02,WeatherDisplay:10.37,2013-05-11 23:10:00,
2013-05-11 16:15:00,76.5,33.6,30.07,ENE,66,0.3,2.3,21,0.00,CLR,SCT,0.02,WeatherDisplay:10.37,2013-05-11 23:15:00,
2013-05-11 16:20:00,77.2,34.2,30.07,NNE,28,0.5,2.3,21,0.00,CLR,SCT,0.02,WeatherDisplay:10.37,2013-05-11 23:20:00,
2013-05-11 16:25:00,77.6,33.3,30.07,ENE,69,1.5,3.5,20,0.00,CLR,SCT,0.02,WeatherDisplay:10.37,2013-05-11 23:25:00,
2013-05-11 16:30:00,77.6,33.3,30.07,ENE,69,0.0,1.2,20,0.00,CLR,SCT,0.02,WeatherDisplay:10.37,2013-05-11 23:30:00,
2013-05-11 16:35:00,77.9,33.6,30.07,NE,47,0.7,2.3,20,0.00,CLR,SCT,0.02,WeatherDisplay:10.37,2013-05-11 23:35:00,
2013-05-11 16:40:00,77.8,33.5,30.07,ENE,60,1.8,6.9,20,0.00,CLR,SCT,0.02,WeatherDisplay:10.37,2013-05-11 23:40:00,
2013-05-11 16:45:00,77.5,32.0,30.07,NE,56,1.4,5.0,19,0.00,CLR,SCT,0.02,WeatherDisplay:10.37,2013-05-11 23:45:00,
2013-05-11 16:50:00,76.4,32.3,30.07,ENE,78,3.0,6.9,20,0.00,CLR,SCT,0.02,WeatherDisplay:10.37,2013-05-11 23:50:00,
2013-05-11 16:55:00,75.2,32.6,30.07,ENE,63,0.8,3.5,21,0.00,CLR,SCT,0.02,WeatherDisplay:10.37,2013-05-11 23:55:00,
2013-05-11 17:00:00,74.5,32.0,30.07,ENE,63,1.5,3.5,21,0.00,CLR,SCT,0.02,WeatherDisplay:10.37,2013-05-12 00:00:00,
2013-05-11 17:05:00,74.4,31.9,30.07,ENE,61,1.7,4.6,21,0.00,CLR,SCT,0.02,WeatherDisplay:10.37,2013-05-12 00:05:00,
2013-05-11 17:10:00,74.6,32.1,30.07,NE,53,1.5,4.6,21,0.00,CLR,SCT,0.02,WeatherDisplay:10.37,2013-05-12 00:10:00,
2013-05-11 17:15:00,74.5,32.0,30.07,ENE,63,0.8,3.5,21,0.00,CLR,SCT,0.02,WeatherDisplay:10.37,2013-05-12 00:15:00,
2013-05-11 17:20:00,74.7,32.1,30.07,ENE,57,0.0,1.2,21,0.00,CLR,SCT,0.02,WeatherDisplay:10.37,2013-05-12 00:20:00,
2013-05-11 17:25:00,74.3,33.0,30.07,ENE,63,1.0,3.5,22,0.00,CLR,SCT,0.02,WeatherDisplay:10.37,2013-05-12 00:25:00,
2013-05-11 17:30:00,73.9,32.6,30.07,ENE,64,1.5,4.6,22,0.00,CLR,SCT,0.02,WeatherDisplay:10.37,2013-05-12 00:30:00,
2013-05-11 17:35:00,74.3,33.0,30.07,ENE,57,1.8,4.6,22,0.00,CLR,SCT,0.02,WeatherDisplay:10.37,2013-05-12 00:35:00,
2013-05-11 17:40:00,74.6,33.2,30.07,ENE,59,0.8,4.6,22,0.00,CLR,SCT,0.02,WeatherDisplay:10.37,2013-05-12 00:40:00,
2013-05-11 17:45:00,74.3,34.1,30.06,ENE,59,1.3,4.6,23,0.00,CLR,SCT,0.02,WeatherDisplay:10.37,2013-05-12 00:45:00,
2013-05-11 17:50:00,74.3,34.1,30.07,ENE,65,1.1,3.5,23,0.00,CLR,SCT,0.02,WeatherDisplay:10.37,2013-05-12 00:50:00,
2013-05-11 17:55:00,74.3,34.1,30.06,ENE,64,0.8,3.5,23,0.00,CLR,SCT,0.02,WeatherDisplay:10.37,2013-05-12 00:55:00,
2013-05-11 18:00:00,74.2,34.0,30.06,ENE,71,1.5,6.9,23,0.00,CLR,SCT,0.02,WeatherDisplay:10.37,2013-05-12 01:00:00,
2013-05-11 18:05:00,74.0,33.8,30.06,ENE,59,1.7,5.8,23,0.00,CLR,SCT,0.02,WeatherDisplay:10.37,2013-05-12 01:05:00,
2013-05-11 18:10:00,73.8,33.7,30.07,East,90,3.1,6.9,23,0.00,CLR,SCT,0.02,WeatherDisplay:10.37,2013-05-12 01:10:00,
2013-05-11 18:15:00,73.5,33.4,30.07,NE,52,0.0,3.5,23,0.00,CLR,SCT,0.02,WeatherDisplay:10.37,2013-05-12 01:15:00,
2013-05-11 18:20:00,73.4,33.3,30.07,ENE,69,0.5,2.3,23,0.00,CLR,SCT,0.02,WeatherDisplay:10.37,2013-05-12 01:20:00,
2013-05-11 18:25:00,73.1,33.1,30.07,ENE,59,0.3,1.2,23,0.00,CLR,SCT,0.02,WeatherDisplay:10.37,2013-05-12 01:25:00,
2013-05-11 18:30:00,72.5,33.6,30.07,ENE,58,0.5,3.5,24,0.00,CLR,SCT,0.02,WeatherDisplay:10.37,2013-05-12 01:30:00,
2013-05-11 18:35:00,72.0,33.2,30.08,ENE,63,0.3,2.3,24,0.00,CLR,SCT,0.02,WeatherDisplay:10.37,2013-05-12 01:35:00,
2013-05-11 18:40:00,71.8,33.0,30.08,ENE,59,0.9,3.0,24,0.00,CLR,SCT,0.02,WeatherDisplay:10.37,2013-05-12 01:40:00,
2013-05-11 18:45:00,71.7,33.0,30.08,ENE,59,0.4,3.5,24,0.00,CLR,SCT,0.02,WeatherDisplay:10.37,2013-05-12 01:45:00,
2013-05-11 18:50:00,71.7,33.0,30.08,ENE,62,1.1,4.6,24,0.00,CLR,SCT,0.02,WeatherDisplay:10.37,2013-05-12 01:50:00,
2013-05-11 18:55:00,71.6,32.9,30.08,ENE,61,2.3,4.6,24,0.00,CLR,SCT,0.02,WeatherDisplay:10.37,2013-05-12 01:55:00,
2013-05-11 19:00:00,71.4,32.7,30.09,NE,50,0.8,1.2,24,0.00,CLR,SCT,0.02,WeatherDisplay:10.37,2013-05-12 02:00:00,
2013-05-11 19:05:00,71.2,33.6,30.09,ENE,60,1.5,3.5,25,0.00,CLR,SCT,0.02,WeatherDisplay:10.37,2013-05-12 02:05:00,
2013-05-11 19:10:00,70.9,34.3,30.09,ENE,70,0.9,5.8,26,0.00,CLR,SCT,0.02,WeatherDisplay:10.37,2013-05-12 02:10:00,
2013-05-11 19:15:00,70.6,34.0,30.09,ENE,68,0.1,3.5,26,0.00,CLR,SCT,0.02,WeatherDisplay:10.37,2013-05-12 02:15:00,
2013-05-11 19:20:00,70.3,34.7,30.09,ENE,63,0.2,1.2,27,0.00,CLR,SCT,0.02,WeatherDisplay:10.37,2013-05-12 02:20:00,
2013-05-11 19:25:00,70.0,34.5,30.10,NE,56,0.2,1.2,27,0.00,CLR,SCT,0.02,WeatherDisplay:10.37,2013-05-12 02:25:00,
2013-05-11 19:30:00,69.7,34.2,30.10,NE,56,0.0,1.2,27,0.00,CLR,SCT,0.02,WeatherDisplay:10.37,2013-05-12 02:30:00,
2013-05-11 19:35:00,69.4,33.9,30.10,ENE,58,0.1,1.2,27,0.00,CLR,SCT,0.02,WeatherDisplay:10.37,2013-05-12 02:35:00,
2013-05-11 19:40:00,69.3,33.9,30.11,ENE,57,0.1,1.2,27,0.00,CLR,SCT,0.02,WeatherDisplay:10.37,2013-05-12 02:40:00,
2013-05-11 19:45:00,69.1,34.6,30.11,ENE,71,0.0,1.2,28,0.00,CLR,SCT,0.02,WeatherDisplay:10.37,2013-05-12 02:45:00,
2013-05-11 19:50:00,68.9,34.4,30.11,ESE,110,0.1,1.2,28,0.00,CLR,SCT,0.02,WeatherDisplay:10.37,2013-05-12 02:50:00,
2013-05-11 19:55:00,68.6,34.2,30.11,ESE,110,0.0,0.0,28,0.00,CLR,SCT,0.02,WeatherDisplay:10.37,2013-05-12 02:55:00,
2013-05-11 20:00:00,68.4,34.0,30.11,ESE,110,0.0,0.0,28,0.00,CLR,SCT,0.02,WeatherDisplay:10.37,2013-05-12 03:00:00,
2013-05-11 20:05:00,68.1,33.7,30.11,ESE,110,0.0,0.0,28,0.00,CLR,SCT,0.02,WeatherDisplay:10.37,2013-05-12 03:05:00,
2013-05-11 20:10:00,67.7,33.4,30.12,ESE,110,0.0,0.0,28,0.00,CLR,SCT,0.02,WeatherDisplay:10.37,2013-05-12 03:10:00,
2013-05-11 20:15:00,67.6,33.3,30.12,ESE,109,0.0,1.2,28,0.00,CLR,SCT,0.02,WeatherDisplay:10.37,2013-05-12 03:15:00,
2013-05-11 20:20:00,67.5,33.2,30.12,ESE,109,0.0,0.0,28,0.00,CLR,SCT,0.02,WeatherDisplay:10.37,2013-05-12 03:20:00,
2013-05-11 20:25:00,67.3,33.1,30.12,ESE,107,0.0,0.0,28,0.00,CLR,SCT,0.02,WeatherDisplay:10.37,2013-05-12 03:25:00,
2013-05-11 20:30:00,67.1,32.9,30.12,ESE,107,0.0,0.0,28,0.00,CLR,SCT,0.02,WeatherDisplay:10.37,2013-05-12 03:30:00,
2013-05-11 20:35:00,67.0,32.8,30.13,ESE,121,0.3,2.3,28,0.00,CLR,SCT,0.02,WeatherDisplay:10.37,2013-05-12 03:35:00,
2013-05-11 20:40:00,67.0,33.7,30.13,NE,53,0.0,2.3,29,0.00,CLR,SCT,0.02,WeatherDisplay:10.37,2013-05-12 03:40:00,
2013-05-11 20:45:00,66.9,34.4,30.13,ENE,63,0.0,2.3,30,0.00,CLR,SCT,0.02,WeatherDisplay:10.37,2013-05-12 03:45:00,
2013-05-11 20:50:00,66.7,34.3,30.13,ENE,66,0.0,0.0,30,0.00,CLR,SCT,0.02,WeatherDisplay:10.37,2013-05-12 03:50:00,
2013-05-11 20:55:00,66.5,34.9,30.14,NE,53,0.0,1.2,31,0.00,CLR,SCT,0.02,WeatherDisplay:10.37,2013-05-12 03:55:00,
2013-05-11 21:00:00,66.3,34.7,30.14,ENE,63,0.0,0.0,31,0.00,CLR,SCT,0.02,WeatherDisplay:10.37,2013-05-12 04:00:00,
2013-05-11 21:01:00,66.2,34.7,30.14,ENE,63,0.0,0.0,31,0.00,CLR,SCT,0.02,WeatherDisplay:10.37,2013-05-12 04:01:00,
2013-05-11 21:02:00,66.2,34.7,30.14,ENE,63,0.0,0.0,31,0.00,CLR,SCT,0.02,WeatherDisplay:10.37,2013-05-12 04:02:00,
2013-05-11 21:06:00,65.9,34.4,30.14,SE,126,0.1,1.2,31,0.00,CLR,SCT,0.02,WeatherDisplay:10.37,2013-05-12 04:06:00,
2013-05-11 21:11:00,65.6,34.1,30.14,SE,126,0.0,0.0,31,0.00,CLR,SCT,0.02,WeatherDisplay:10.37,2013-05-12 04:11:00,
2013-05-11 21:15:00,65.4,34.0,30.15,SE,126,0.0,0.0,31,0.00,CLR,SCT,0.02,WeatherDisplay:10.37,2013-05-12 04:15:00,
2013-05-11 21:20:00,65.0,34.4,30.15,SE,126,0.0,0.0,32,0.00,CLR,SCT,0.02,WeatherDisplay:10.37,2013-05-12 04:20:00,
2013-05-11 21:25:00,64.7,34.1,30.15,SE,126,0.0,0.0,32,0.00,CLR,SCT,0.02,WeatherDisplay:10.37,2013-05-12 04:25:00,
2013-05-11 21:30:00,64.5,34.7,30.15,SE,126,0.0,0.0,33,0.00,CLR,SCT,0.02,WeatherDisplay:10.37,2013-05-12 04:30:00,
2013-05-11 21:35:00,64.3,34.6,30.16,SE,126,0.0,0.0,33,0.00,CLR,SCT,0.02,WeatherDisplay:10.37,2013-05-12 04:35:00,
2013-05-11 21:40:00,64.0,35.0,30.16,SE,136,0.1,1.0,34,0.00,CLR,SCT,0.02,WeatherDisplay:10.37,2013-05-12 04:40:00,
2013-05-11 21:45:00,63.9,35.0,30.16,SE,143,0.0,0.0,34,0.00,CLR,SCT,0.02,WeatherDisplay:10.37,2013-05-12 04:45:00,
2013-05-11 21:50:00,63.6,35.4,30.16,SE,143,0.6,3.5,35,0.00,CLR,SCT,0.02,WeatherDisplay:10.37,2013-05-12 04:50:00,
2013-05-11 21:55:00,63.3,35.2,30.16,South,172,0.0,1.2,35,0.00,CLR,SCT,0.02,WeatherDisplay:10.37,2013-05-12 04:55:00,
2013-05-11 22:00:00,63.1,35.7,30.16,South,172,0.0,0.0,36,0.00,CLR,SCT,0.02,WeatherDisplay:10.37,2013-05-12 05:00:00,
2013-05-11 22:05:00,62.8,35.4,30.16,South,172,0.0,1.2,36,0.00,CLR,SCT,0.02,WeatherDisplay:10.37,2013-05-12 05:05:00,
2013-05-11 22:10:00,62.6,36.6,30.16,South,172,0.0,0.0,38,0.00,CLR,SCT,0.02,WeatherDisplay:10.37,2013-05-12 05:10:00,
2013-05-11 22:15:00,62.4,35.8,30.16,South,172,0.0,0.0,37,0.00,CLR,SCT,0.02,WeatherDisplay:10.37,2013-05-12 05:15:00,
2013-05-11 22:20:00,62.2,36.3,30.16,South,172,0.0,1.2,38,0.00,CLR,SCT,0.02,WeatherDisplay:10.37,2013-05-12 05:20:00,
2013-05-11 22:25:00,61.9,36.7,30.16,South,172,0.0,0.0,39,0.00,CLR,SCT,0.02,WeatherDisplay:10.37,2013-05-12 05:25:00,
2013-05-11 22:30:00,61.6,37.0,30.16,South,172,0.0,0.0,40,0.00,CLR,SCT,0.02,WeatherDisplay:10.37,2013-05-12 05:30:00,
2013-05-11 22:35:00,61.2,36.7,30.16,South,172,0.0,1.2,40,0.00,CLR,SCT,0.02,WeatherDisplay:10.37,2013-05-12 05:35:00,
2013-05-11 22:40:00,60.9,36.4,30.16,South,172,0.1,1.2,40,0.00,CLR,SCT,0.02,WeatherDisplay:10.37,2013-05-12 05:40:00,
2013-05-11 22:45:00,60.9,37.0,30.16,South,172,0.4,2.3,41,0.00,CLR,SCT,0.02,WeatherDisplay:10.37,2013-05-12 05:45:00,
2013-05-11 22:50:00,60.9,37.0,30.16,South,172,0.0,0.0,41,0.00,CLR,SCT,0.02,WeatherDisplay:10.37,2013-05-12 05:50:00,
2013-05-11 22:55:00,61.0,37.1,30.16,South,172,0.1,0.0,41,0.00,CLR,SCT,0.02,WeatherDisplay:10.37,2013-05-12 05:55:00,
2013-05-11 23:00:00,61.1,37.2,30.16,South,172,0.0,3.5,41,0.00,CLR,SCT,0.02,WeatherDisplay:10.37,2013-05-12 06:00:00,
2013-05-11 23:05:00,61.1,37.2,30.16,South,172,0.0,0.0,41,0.00,CLR,SCT,0.02,WeatherDisplay:10.37,2013-05-12 06:05:00,
2013-05-11 23:10:00,61.0,37.1,30.16,South,172,0.1,1.2,41,0.00,CLR,SCT,0.02,WeatherDisplay:10.37,2013-05-12 06:10:00,
2013-05-11 23:15:00,61.0,37.1,30.15,South,172,0.1,1.2,41,0.00,CLR,SCT,0.02,WeatherDisplay:10.37,2013-05-12 06:15:00,
2013-05-11 23:20:00,61.1,37.2,30.16,South,172,0.1,1.2,41,0.00,CLR,SCT,0.02,WeatherDisplay:10.37,2013-05-12 06:20:00,
2013-05-11 23:25:00,61.1,37.2,30.15,South,172,0.0,0.0,41,0.00,CLR,SCT,0.02,WeatherDisplay:10.37,2013-05-12 06:25:00,
2013-05-11 23:30:00,61.0,37.1,30.15,South,172,0.1,2.3,41,0.00,CLR,SCT,0.02,WeatherDisplay:10.37,2013-05-12 06:30:00,
2013-05-11 23:35:00,61.0,37.1,30.15,South,172,0.0,0.0,41,0.00,CLR,SCT,0.02,WeatherDisplay:10.37,2013-05-12 06:35:00,
2013-05-11 23:40:00,61.0,37.1,30.15,South,172,0.0,0.0,41,0.00,CLR,SCT,0.02,WeatherDisplay:10.37,2013-05-12 06:40:00,
2013-05-11 23:45:00,60.7,36.8,30.15,South,172,0.0,0.0,41,0.00,CLR,SCT,0.02,WeatherDisplay:10.37,2013-05-12 06:45:00,
2013-05-11 23:50:00,60.5,36.7,30.15,South,172,0.2,1.2,41,0.00,CLR,SCT,0.02,WeatherDisplay:10.37,2013-05-12 06:50:00,
2013-05-11 23:55:00,60.4,36.6,30.15,South,172,0.0,1.2,41,0.00,CLR,SCT,0.02,WeatherDisplay:10.37,2013-05-12 06:55:00,